Flight Track Log - Related Links

Times and Time Zones

All times are in EDT time to prevent confusion due to time zone crossing. See the N26VW flight status page for this flight to view local times or setup timezone preferences in your user account.

Time Position Orientation Groundspeed Altitude Reporting Facility
EDT Latitude Longitude Course Direction KTS MPH feet Rate Location/Type
Wed 02:10:14 PM 42.4167 -87.8167 114° Southeast 134 154 2,100  Level Chicago TRACON
Wed 02:11:20 PM 42.4000 -87.7667 114° Southeast 158 182 3,600 1,000 Climbing Chicago TRACON
Wed 02:12:08 PM 42.3753 -87.7311 133° Southeast 169 194 4,000 164 Climbing Chicago Center
Wed 02:13:10 PM 42.3336 -87.6758 136° Southeast 199 229 3,900 -48 Descending Chicago Center
Wed 02:14:12 PM 42.2931 -87.6058 128° Southeast 221 254 3,900 192 Level Chicago Center
Wed 02:15:15 PM 42.2561 -87.5428 128° Southeast 219 252 4,300 720 Climbing Chicago Center
Wed 02:16:17 PM 42.2247 -87.4825 125° Southeast 203 234 5,400 1,016 Climbing Chicago Center
Wed 02:17:19 PM 42.1919 -87.4244 127° Southeast 194 223 6,400 919 Climbing Chicago Center
Wed 02:18:21 PM 42.1600 -87.3603 124° Southeast 204 235 7,300 871 Climbing Chicago Center
Wed 02:19:23 PM 42.1261 -87.2908 123° Southeast 219 252 8,200 968 Climbing Chicago Center
Wed 02:20:25 PM 42.1172 -87.1839 96° East 247 284 9,300 823 Climbing Chicago Center
Wed 02:21:27 PM 42.1172 -87.0892 90° East 252 290 9,900 339 Climbing Chicago Center
Wed 02:22:29 PM 42.1158 -86.9828 91° East 279 321 10,000 48 Climbing Chicago Center
Wed 02:23:31 PM 42.1164 -86.8739 90° East 290 334 10,000 48 Level Chicago Center
Wed 02:24:33 PM 42.1183 -86.7686 89° East 284 327 10,100 677 Climbing Chicago Center
Wed 02:25:35 PM 42.1208 -86.6633 88° East 262 302 11,400 1,056 Climbing Chicago Center
Wed 02:26:38 PM 42.1214 -86.5644 90° East 264 304 12,300 864 Climbing Chicago Center
Wed 02:27:40 PM 42.1222 -86.4639 89° East 268 308 13,200 823 Climbing Chicago Center
Wed 02:28:42 PM 42.1228 -86.3414 90° East 272 313 14,000 387 Climbing Chicago Center
Wed 02:29:44 PM 42.1225 -86.2300 90° East 292 336 14,000  Level Chicago Center
Wed 02:30:46 PM 42.1131 -86.1156 96° East 314 361 14,000  Level Chicago Center
Wed 02:31:48 PM 42.0658 -86.0253 125° Southeast 295 339 14,000  Level Chicago Center
Wed 02:32:50 PM 42.0181 -85.9281 123° Southeast 280 322 14,000  Level Chicago Center
Wed 02:33:52 PM 41.9786 -85.8506 124° Southeast 284 327 14,000 97 Level Chicago Center
Wed 02:34:54 PM 41.9175 -85.7550 131° Southeast 282 325 14,200 629 Climbing Chicago Center
Wed 02:35:56 PM 41.8661 -85.6817 133° Southeast 272 313 15,300 864 Climbing Chicago Center
Wed 02:36:59 PM 41.8061 -85.6336 149° Southeast 256 295 16,000 672 Climbing Chicago Center
Wed 02:38:01 PM 41.7400 -85.6003 159° South 255 293 16,700 677 Climbing Chicago Center
Wed 02:39:03 PM 41.6717 -85.5625 158° South 266 306 17,400 629 Climbing Chicago Center
Wed 02:40:05 PM 41.5900 -85.5122 155° Southeast 279 321 18,000 581 Climbing Chicago Center
Wed 02:41:07 PM 41.5311 -85.4392 137° Southeast 297 342 18,600 532 Climbing Chicago Center
Wed 02:42:09 PM 41.4700 -85.3672 139° Southeast 296 341 19,100 484 Climbing Chicago Center
Wed 02:43:11 PM 41.4083 -85.2978 140° Southeast 294 338 19,600 435 Climbing Chicago Center
Wed 02:44:13 PM 41.3331 -85.2125 140° Southeast 295 339 20,000 435 Climbing Chicago Center
Wed 02:45:15 PM 41.2697 -85.1397 139° Southeast 299 344 20,500 435 Climbing Chicago Center
Wed 02:46:17 PM 41.2067 -85.0681 139° Southeast 300 345 20,900 -192 Climbing Chicago Center
Wed 02:47:20 PM 41.1406 -84.9942 140° Southeast 308 354 20,100 -1,152 Descending Chicago Center
Wed 02:48:22 PM 41.0658 -84.9111 140° Southeast 340 391 18,500 -1,790 Descending Chicago Center
Wed 02:49:24 PM 40.9822 -84.8147 139° Southeast 336 387 16,400 -1,694 Descending Chicago Center
Wed 02:50:26 PM 40.9200 -84.7458 140° Southeast 302 348 15,000 -726 Descending Chicago Center
Wed 02:51:28 PM 40.8625 -84.6819 140° Southeast 278 320 14,900 -105 Descending Chicago Center
Wed 02:52:20 PM 40.8144 -84.6222 137° Southeast 275 316 14,800  Descending Indianapolis Center
Wed 02:53:22 PM 40.7528 -84.5536 140° Southeast 271 312 14,900 48 Climbing Indianapolis Center
Wed 02:54:24 PM 40.6944 -84.4883 140° Southeast 273 314 14,900 -194 Level Indianapolis Center
Wed 02:55:26 PM 40.6353 -84.4233 140° Southeast 273 314 14,500 -677 Descending Indianapolis Center
Wed 02:56:28 PM 40.5778 -84.3594 140° Southeast 269 310 13,500 -968 Descending Indianapolis Center
Wed 02:57:30 PM 40.5231 -84.3003 141° Southeast 255 293 12,500 -964 Descending Indianapolis Center
Wed 02:58:20 PM 40.4669 -84.2631 153° Southeast 230 265 11,700 -865 Descending Indianapolis Center
Wed 02:59:21 PM 40.4058 -84.2411 165° South 230 265 10,900 -893 Descending Indianapolis Center
Wed 03:00:21 PM 40.3378 -84.2294 173° South 250 288 9,900 -947 Descending Indianapolis Center
Wed 03:00:37 PM 40.3225 -84.2239 165° South 245 282 9,700 -885 Descending Indianapolis Center
Wed 03:01:22 PM 40.2700 -84.2119 170° South 248 285 9,000 -871 Descending Indianapolis Center
Wed 03:01:39 PM 40.2561 -84.2086 170° South 243 280 8,800 -885 Descending Indianapolis Center
Wed 03:02:23 PM 40.2078 -84.2011 173° South 228 262 8,100 -871 Descending Indianapolis Center
Wed 03:02:41 PM 40.1925 -84.1969 168° South 235 270 7,900 -885 Descending Indianapolis Center
Wed 03:03:24 PM 40.1400 -84.1864 171° South 227 261 7,200 -871 Descending Indianapolis Center
Wed 03:03:43 PM 40.1289 -84.1833 168° South 232 267 7,000 -815 Descending Indianapolis Center
Wed 03:04:45 PM 40.0653 -84.1697 171° South 231 266 6,100 -619 Descending Indianapolis Center
Wed 03:05:20 PM 40.0203 -84.1625 173° South 205 236 6,000 -97 Descending Indianapolis Center
Wed 03:05:47 PM 39.9964 -84.1553 167° South 220 253 6,000 -202 Level Indianapolis Center
Wed 03:06:49 PM 39.9472 -84.1450 171° South 191 220 5,700 -535 Descending Indianapolis Center
Wed 03:07:28 PM 39.9092 -84.1369 171° South 203 234 5,100 -774 Descending Indianapolis Center
Wed 03:07:51 PM 39.8931 -84.1306 163° South 190 219 4,900 -689 Descending Indianapolis Center
Wed 03:08:29 PM 39.8589 -84.1086 154° Southeast 200 230 4,400 -677 Descending Indianapolis Center
Wed 03:08:53 PM 39.8461 -84.0922 135° Southeast 199 229 4,200 -358 Descending Indianapolis Center
Wed 03:09:36 PM 39.8122 -84.0617 145° Southeast 189 217 4,000 -194 Descending Indianapolis Center
Wed 03:09:55 PM 39.8019 -84.0592 169° South 190 219 4,000  Level Indianapolis Center
Wed 03:10:31 PM 39.7683 -84.0614 183° South 164 189 4,000 -290 Level Indianapolis Center
Wed 03:10:57 PM 39.7547 -84.0619 182° South 175 201 3,700 -984 Descending Indianapolis Center
Wed 03:11:32 PM 39.7197 -84.0658 185° South 176 203 3,000 -774 Descending Indianapolis Center
Wed 03:11:59 PM 39.7056 -84.0644 176° South 174 200 2,900  Descending Indianapolis Center
Wed 03:12:33 PM 39.6750 -84.0736 193° South 169 194 3,000 97 Climbing Indianapolis Center
Wed 03:13:01 PM 39.6639 -84.0958 237° Southwest 163 188 3,000  Level Indianapolis Center
Wed 03:13:33 PM 39.6486 -84.1189 229° Southwest 148 170 3,000  Level Indianapolis Center
Wed 03:14:03 PM 39.6383 -84.1364 233° Southwest 156 180 3,000  Level Indianapolis Center

Login

Don't have an account? Register now (free) for customized features, flight alerts, and more!